Find Starlink 11311

NORAD ID: 61253 Int'l Des: 2024-175 Owner: SPXS Country: US Constellation: starlink operational
LEOCIRCULAR

現在のビュー

3D地球を読み込み中...

About Starlink 11311

Starlink 11311 (NORAD 61253) is a starlink constellation satellite (v2 mini d2c) launched Sep 25, 2024 by SPXS of US. It operates in LEO, CIRCULAR orbit with a mass of 960.00 kg.

Starlink 11311について

説明を読み込み中...

次回通過

Passes for default location (London). Set your location on the main map for personalized predictions.

高度履歴

Loading altitude history...

軌道要素

1 61253U 24175L 26170.55935261 -.00020561 00000-0 -16475-3 0 9990
2 61253 53.1591 274.2746 0000986 150.6500 209.4573 15.69786165100572
Epoch: Jun 19, 2026 • Age: 20 hours

現在のステータス

高度 364.7 km
速度 7.70 km/s
衛星直下点 49.02°N, 23.88°W
打ち上げ日 Sep 25, 2024
運用期間 1.7 years
タイプ internet

技術仕様

分類 Payload
質量 960.00 kg
乾燥質量 910.00 kg
総質量 960.00 kg
長さ 0.30 m
直径 4.10 m
スパン 29.00 m
形状 Box + pan
製造者 SPXS
バスタイプ Starlink V2MD
フェーズステータス In Orbit
所有者/国 SPXS/US

Most Searched